Miami, FL

3:58 AM EDT on June 25, 2017 (GMT -0400)
Miami International

Weather History for KMIA - June, 2013

Change the Weather History Date:

Wednesday, June 26, 2013

  Actual Average Record
Temperature  
Mean Temperature 85 °F 83 °F  
Max Temperature 90 °F 90 °F 95 °F (1987)
Min Temperature 80 °F 77 °F 66 °F (1937)
Degree Days  
Heating Degree Days 0 0  
Month to date heating degree days 0 0  
Since 1 June heating degree days 0 0  
Since 1 July heating degree days 70 128  
Cooling Degree Days 20 18  
Month to date cooling degree days 476 459  
Year to date cooling degree days 1921 1815  
Since 1 June cooling degree days 476 459  
Growing Degree Days 34 (Base 50)    
Moisture  
Dew Point 73 °F    
Average Humidity 71    
Maximum Humidity 85    
Minimum Humidity 56    
Precipitation  
Precipitation T in 0.33 in 4.18 in (2002)
Month to date precipitation 4.93 8.38  
Year to date precipitation 24.30 23.73  
Snow  
Snow 0.00 in - - ()
Month to date snowfall 0.0  
Since 1 June snowfall 0.0  
Since 1 July snowfall 0.0  
Snow Depth 0.00 in    
Sea Level Pressure  
Sea Level Pressure 30.06 in    
Wind  
Wind Speed 10 mph (ESE)    
Max Wind Speed 16 mph    
Max Gust Speed 22 mph    
Visibility 10 miles    
Events      
T = Trace of Precipitation, MM = Missing Value Source: NWS Daily Summary

Daily Weather History Graph

Daily Weather History Graph

Search for Another Location

Airport or City:

Trip Planner

Search our weather history database for the weather conditions in past years. The results will help you decide how hot, cold, wet, or windy it might be!

Date:

Astronomy

Jun. 26, 2013 Rise Set
Actual Time 6:31 AM EDT 8:16 PM EDT
Civil Twilight 6:05 AM EDT 8:42 PM EDT
Nautical Twilight 5:34 AM EDT 9:13 PM EDT
Astronomical Twilight 5:01 AM EDT 9:46 PM EDT
Moon 11:04 PM EDT (6/26) 9:59 AM EDT (6/26)
Length of Visible Light 14h 36m
Length of Day
13h 44m
Waning Gibbous, 85% of the Moon is Illuminated
Jun 26
Waning Gibbous
Jun 30
Last Quarter
Jul 8
New
Jul 15
First Quarter
Jul 22
Full

Hourly Weather History & Observations

Time (EDT) Temp. Heat Index Dew Point Humidity Pressure Visibility Wind Dir Wind Speed Gust Speed Precip Events Conditions
12:53 AM 81.0 °F 86.7 °F 75.0 °F 82% 30.08 in 10.0 mi East 6.9 mph - N/A   Scattered Clouds
1:53 AM 81.0 °F 86.7 °F 75.0 °F 82% 30.06 in 10.0 mi ESE 5.8 mph - N/A   Scattered Clouds
2:53 AM 81.0 °F 86.7 °F 75.0 °F 82% 30.04 in 10.0 mi ESE 6.9 mph - 0.00 in   Mostly Cloudy
3:53 AM 81.0 °F 86.2 °F 73.9 °F 79% 30.02 in 10.0 mi ESE 8.1 mph - N/A   Mostly Cloudy
4:53 AM 81.0 °F 85.8 °F 73.0 °F 77% 30.03 in 10.0 mi SE 9.2 mph - N/A   Mostly Cloudy
5:53 AM 81.0 °F 85.2 °F 72.0 °F 74% 30.04 in 10.0 mi SE 6.9 mph - N/A   Scattered Clouds
6:53 AM 81.0 °F 85.8 °F 73.0 °F 77% 30.05 in 10.0 mi ESE 6.9 mph - N/A   Mostly Cloudy
7:53 AM 82.9 °F 88.8 °F 73.0 °F 72% 30.05 in 10.0 mi East 11.5 mph - N/A   Mostly Cloudy
8:53 AM 84.9 °F 91.4 °F 73.0 °F 67% 30.06 in 10.0 mi ESE 12.7 mph - N/A   Mostly Cloudy
9:18 AM 84.2 °F 90.9 °F 73.4 °F 70% 30.07 in 10.0 mi SE 11.5 mph 18.4 mph N/A   Mostly Cloudy
9:53 AM 84.9 °F 92.1 °F 73.9 °F 69% 30.07 in 10.0 mi SE 11.5 mph 18.4 mph N/A   Mostly Cloudy
10:53 AM 86.0 °F 93.8 °F 73.9 °F 67% 30.07 in 10.0 mi SE 12.7 mph - N/A   Mostly Cloudy
11:53 AM 87.1 °F 93.6 °F 72.0 °F 61% 30.08 in 10.0 mi ESE 10.4 mph - N/A   Mostly Cloudy
12:04 PM 87.8 °F 93.8 °F 71.6 °F 58% 30.08 in 10.0 mi SE 10.4 mph - N/A   Mostly Cloudy
12:53 PM 88.0 °F 93.8 °F 71.1 °F 57% 30.09 in 10.0 mi SSE 11.5 mph - N/A   Mostly Cloudy
1:53 PM 89.1 °F 96.0 °F 72.0 °F 57% 30.08 in 10.0 mi ESE 10.4 mph - N/A   Mostly Cloudy
2:53 PM 88.0 °F 93.8 °F 71.1 °F 57% 30.06 in 10.0 mi ESE 12.7 mph - N/A   Mostly Cloudy
3:53 PM 87.1 °F 93.6 °F 72.0 °F 61% 30.06 in 10.0 mi ESE 12.7 mph - N/A   Mostly Cloudy
4:53 PM 86.0 °F 92.2 °F 72.0 °F 63% 30.04 in 10.0 mi ESE 16.1 mph - N/A   Mostly Cloudy
5:53 PM 84.9 °F 90.1 °F 71.1 °F 63% 30.04 in 10.0 mi East 11.5 mph - N/A   Mostly Cloudy
6:53 PM 84.9 °F 89.4 °F 70.0 °F 61% 30.03 in 10.0 mi ESE 10.4 mph - N/A   Mostly Cloudy
7:53 PM 82.9 °F 88.0 °F 72.0 °F 69% 30.05 in 10.0 mi ESE 9.2 mph - N/A   Mostly Cloudy
8:53 PM 82.9 °F 88.8 °F 73.0 °F 72% 30.07 in 10.0 mi East 9.2 mph - N/A   Mostly Cloudy
9:53 PM 82.0 °F 87.4 °F 73.0 °F 74% 30.07 in 10.0 mi SE 5.8 mph - N/A   Mostly Cloudy
10:53 PM 82.9 °F 89.4 °F 73.9 °F 74% 30.07 in 10.0 mi ESE 6.9 mph - N/A   Mostly Cloudy
11:53 PM 82.9 °F 89.4 °F 73.9 °F 74% 30.05 in 10.0 mi ESE 9.2 mph - N/A   Scattered Clouds